TIME,DELAY(SENSOR),PRES,OXYGEN,RAWTEMP,T(OPTODE),TCPHASE,FLUOR,BETA(BETA700),BETA(BETA412),BETA(BETA440),CDOM,C(CSC),ED(ED412.40),ED(ED444.00),ED(ED489.70),ED(ED554.30),LU(LU411.80),LU(LU443.40),LU(LU489.60),LU(LU554.10),COMP,TILTX,TILTY,CHECK
1338608380,5811,886.0700073242188000,42.9359092712402340,661.7291870117188000,4.5710301399230960,54.5807991027832000,53,100,88,79,82,15356,2147755593,2147421275,2148006390,2147873682,2147641746,2147059940,2148262226,2147203510,420,4,13,21597
1338611976,5806,967.6099853515625000,47.9023513793945300,670.3853759765625000,4.2854671478271480,53.9676818847656250,52,101,85,79,82,15356,2147758070,2147420178,2148007753,2147876964,2147645906,2147053577,2148268178,2147202578,1966,4,13,29033
1338615576,5808,971.1599731445312000,48.9600296020507800,672.1383056640625000,4.2275347709655760,53.8380317687988300,53,99,85,79,84,15359,2147756781,2147419483,2148007506,2147871990,2147643721,2147057289,2148267638,2147200393,3061,4,13,53591
1338619176,5807,985.9199829101562000,48.4745788574218750,672.3737792968750000,4.2197480201721190,53.9117088317871100,53,103,90,80,84,15359,2147754038,2147421440,2148008429,2147874880,2147645165,2147057938,2148261348,2147203337,892,4,13,35986
1338622776,5810,990.6900024414062000,48.2565994262695300,671.6624145507812000,4.2432670593261720,53.9329910278320300,52,97,85,78,84,15357,2147756891,2147421531,2148007670,2147874176,2147641673,2147063945,2148265289,2147200237,3497,4,14,35194
1338626376,5809,995.7999877929688000,47.8773689270019500,671.4097290039062000,4.2516169548034670,53.9856605529785160,53,101,87,79,84,15353,2147758701,2147421504,2148007451,2147874185,2147641746,2147060992,2148263323,2147197686,129,4,13,47780
1338629976,5809,1000.1900024414062000,47.6937904357910160,671.5518798828125000,4.2469201087951660,54.0112495422363300,52,100,86,78,82,15356,2147759003,2147420114,2148006848,2147875300,2147644022,2147059465,2148262134,2147201005,417,4,13,10097
1338633576,5808,1000.5800170898438000,47.6678695678710940,671.9326782226562000,4.2343311309814450,54.0218009948730500,52,100,86,79,83,15353,2147755401,2147419264,2148006153,2147874916,2147647771,2147061385,2148264292,2147204598,281,4,13,36763
1338637176,5808,1001.9699707031250000,47.3486709594726560,671.5844726562500000,4.2458400726318360,54.0574302673339840,53,99,87,79,83,15352,2147757860,2147417051,2148007789,2147876781,2147642642,2147062866,2148262308,2147199003,3572,4,14,39442
1338640776,5806,1003.6400146484375000,47.4948005676269500,671.4625244140625000,4.2498741149902340,54.0386505126953100,53,101,91,79,82,15353,2147757339,2147422198,2148008109,2147874066,2147642441,2147066093,2148260397,2147197504,3541,4,14,15926
1338644376,5809,995.5700073242188000,47.5206108093261700,672.3389282226562000,4.2209048271179200,54.0415306091308600,53,99,87,80,84,15353,2147756635,2147418404,2148005394,2147873033,2147644736,2147063881,2148265161,2147201216,137,4,13,40855
1338647976,5807,995.8400268554688000,47.8979797363281250,674.0280151367188000,4.1650471687316895,54.0121192932128900,53,99,87,79,83,15354,2147757403,2147421805,2148007488,2147872457,2147646244,2147062226,2148261952,2147199497,3522,4,14,42199
1338651576,5810,992.7600097656250000,48.4325485229492200,674.7191162109375000,4.1421828269958500,53.9458503723144500,53,100,88,80,83,15349,2147759844,2147420288,2148007552,2147874249,2147647634,2147058185,2148268224,2147198500,258,4,13,59662
1338655176,5811,1001.5100097656250000,48.2996711730957000,674.3093261718750000,4.1557412147521970,53.9581108093261700,53,99,90,80,83,15353,2147757906,2147419995,2148007076,2147875766,2147646116,2147063780,2148264338,2147200356,76,5,13,39403
1338658776,5806,1002.4600219726562000,48.0424690246582000,673.6682739257812000,4.1769452095031740,53.9859313964843750,53,97,87,79,84,15353,2147757339,2147420278,2148006281,2147873581,2147641664,2147061229,2148258816,2147198025,3402,4,14,50359
1338662376,5811,1004.5399780273438000,47.9107513427734400,673.4735717773438000,4.1833839416503910,54.0068016052246100,52,103,88,79,83,15350,2147756854,2147420160,2148006281,2147875538,2147645549,2147065380,2148261321,2147199149,521,4,13,10635
1338665976,5808,1004.4099731445312000,47.4479713439941400,671.9652099609375000,4.2332568168640140,54.0502510070800800,53,102,85,78,83,15350,2147760365,2147421732,2148010450,2147874048,2147645229,2147063698,2148262729,2147200219,158,4,13,31696
1338669576,5811,1008.6500244140625000,47.6502494812011700,672.4923706054688000,4.2158279418945310,54.0321807861328100,53,99,86,80,84,15352,2147759670,2147419721,2148008621,2147872667,2147640484,2147061101,2148263762,2147201883,216,4,13,51243
1338673176,5808,1009.9299926757812000,47.4057998657226560,671.7529907226562000,4.2402729988098145,54.0525207519531250,53,97,90,78,83,15350,2147757568,2147420397,2148007488,2147876452,2147648128,2147059684,2148262491,2147199725,3545,4,14,12949
1338676776,5812,1010.3200073242188000,47.1077117919921900,671.8162841796875000,4.2381777763366700,54.0992507934570300,53,99,89,78,83,15353,2147765385,2147420617,2148005915,2147875584,2147645732,2147062198,2148262692,2147199899,5,5,13,41824
1338680376,5810,1011.4000244140625000,47.1944389343261700,671.8726806640625000,4.2363171577453610,54.0828018188476560,52,97,88,78,81,15350,2147757330,2147421531,2148006171,2147874989,2147645184,2147061348,2148261165,2147200256,3594,4,14,29784
1338683976,5809,1007.6900024414062000,47.4552383422851560,672.9807739257812000,4.1996798515319820,54.0614013671875000,53,99,88,79,83,15351,2147758162,2147421120,2148009060,2147876525,2147642934,2147059803,2148262454,2147197467,194,4,13,14473
1338687576,5812,1005.9899902343750000,47.7120399475097660,673.4417724609375000,4.1844329833984375,54.0314903259277340,52,99,89,86,84,15336,2147758107,2147420635,2148007945,2147877302,2147646656,2147061604,2148262198,2147201993,3443,4,13,35828
1338691176,5806,994.7899780273438000,47.9699897766113300,674.9119873046875000,4.1357989311218260,54.0133514404296900,53,98,88,80,85,15351,2147759908,2147420973,2148010486,2147874313,2147646144,2147059044,2148268059,2147198153,916,4,13,63473
1338694776,5809,1000.3900146484375000,48.4382705688476560,676.1243286132812000,4.0956749916076660,53.9668502807617200,53,97,88,80,84,15351,2147758006,2147421705,2148006957,2147874834,2147641362,2147058550,2148264457,2147201682,3387,4,13,63522
1338698376,5805,993.5800170898438000,48.7143783569335940,676.8015747070312000,4.0732522010803220,53.9332885742187500,53,98,88,80,84,15352,2147755904,2147421476,2148005824,2147872155,2147645933,2147061686,2148263533,2147205110,234,4,13,20242
1338701976,5812,1004.7899780273438000,48.3922805786132800,675.6663208007812000,4.1108360290527340,53.9653282165527340,53,97,90,79,83,15350,2147758098,2147420672,2148005266,2147874084,2147644214,2147058523,2148268114,2147195794,347,4,13,20761
1338705576,5806,1009.6400146484375000,47.9980087280273440,674.1859741210938000,4.1598172187805180,54.0040817260742200,52,98,87,80,83,15350,2147756644,2147420242,2148005677,2147876388,2147643840,2147058450,2148261997,2147201782,122,4,13,60803
1338709176,5810,1014.8499755859375000,47.7307014465332000,673.8947143554688000,4.1694550514221190,54.0343589782714840,53,100,92,78,82,15349,2147754770,2147421174,2148006820,2147877001,2147642779,2147057563,2148267501,2147199085,3564,4,13,6764
1338712776,5810,1016.1599731445312000,47.2375717163085940,672.3776245117188000,4.2196249961853030,54.0847892761230500,53,97,89,78,83,15350,2147758555,2147422308,2148008950,2147876297,2147646217,2147058614,2148257910,2147201261,99,5,13,15872
1338716376,5810,1011.2500000000000000,47.4808616638183600,672.7783203125000000,4.2063770294189450,54.0536499023437500,53,99,106,80,84,15347,2147758582,2147422125,2148007332,2147875035,2147648146,2147067236,2148261220,2147198134,2873,4,13,65158
1338719976,5808,1020.1199951171875000,47.6387596130371100,672.4744873046875000,4.2164192199707030,54.0308189392089840,52,99,86,79,83,15346,2147757476,2147423094,2148006802,2147877449,2147645979,2147061568,2148262546,2147198244,2343,4,13,64029
1338723576,5806,1011.8800048828125000,47.5313110351562500,672.7813110351562000,4.2062759399414060,54.0494804382324200,52,97,89,79,83,15339,2147759478,2147423296,2148006838,2147879122,2147642514,2147066084,2148260452,2147195940,3467,4,13,20803
1338727176,5808,1010.7500000000000000,47.3889007568359400,672.8287963867188000,4.2047061920166020,54.0721397399902340,53,98,89,78,84,15334,2147757220,2147419382,2148008329,2147877760,2147645037,2147066934,2148263076,2147200457,183,4,13,42248
1338730776,5811,1004.2500000000000000,47.3051490783691400,673.2225952148438000,4.1916828155517580,54.0881385803222660,52,100,91,79,83,15340,2147756470,2147423433,2148008018,2147874587,2147646948,2147062262,2148263588,2147200841,3216,4,13,51337
1338734376,5810,1002.7399902343750000,47.1344909667968750,674.3302001953125000,4.1550478935241700,54.1260795593261700,52,97,86,78,82,15340,2147758354,2147421622,2148007597,2147877211,2147644672,2147058322,2148258422,2147201490,365,4,13,7984
1338737976,5806,1003.9500122070312000,47.5770492553710940,674.8784790039062000,4.1369061470031740,54.0715599060058600,53,97,86,81,83,15340,2147760256,2147422235,2148008301,2147875958,2147646299,2147058944,2148260233,2147198326,663,4,13,2250
1338741576,5810,1004.9799804687500000,47.5059394836425800,674.8698730468750000,4.1371898651123050,54.0813789367675800,53,98,86,79,84,15338,2147758134,2147421549,2148008027,2147875172,2147647250,2147063030,2148266550,2147201691,2752,4,13,55021
1338745176,5808,1005.9400024414062000,47.9130897521972660,675.0291137695312000,4.1319260597229000,54.0245285034179700,52,98,88,79,83,15339,2147759286,2147421129,2148004132,2147877248,2147646244,2147061531,2148266176,2147200832,3044,4,13,492
1338748776,5807,1016.5200195312500000,47.8814315795898440,674.1503295898438000,4.1609969139099120,54.0131111145019500,53,97,92,78,83,15336,2147758390,2147423012,2148004754,2147876818,2147645796,2147061449,2148260553,2147198994,2614,4,13,51840
1338752376,5808,1008.5700073242188000,47.5830307006835940,673.4957885742188000,4.1826500892639160,54.0508995056152340,53,99,85,79,84,15339,2147756818,2147421878,2148008576,2147876964,2147644790,2147056813,2148260662,2147201728,138,4,13,50343
1338753055,5810,1009.1199951171875000,47.3261413574218750,673.5360717773438000,4.1813139915466310,54.0842781066894500,52,100,86,79,83,15343,2147757485,2147421293,2148007670,2147876800,2147647049,2147061339,2148263405,2147202112,3274,4,13,54076
